sat.trackr.live / text

‹ back to catalog

STARLINK-30291

NORAD 57856 · 2023-141S

PAYLOAD ACTIVE UNKNOWN

§ Identity

Operator
Country
US
Launch date
2023-09-12
Launch site
AFWTR
Launch vehicle
Mass (kg)
RCS (m²)

Purposes: comms

External: N2YO · Heavens-Above · Gunter

§ Orbital elements

Epoch: 2026-05-25T02:47:00.026592Z

Period
94.01 min
Inclination
53.1599°
Eccentricity
0.0001353
Mean motion
15.31695646 rev/d
Perigee alt
469.8 km
Apogee alt
471.7 km
Semi-major
6,848.9 km
B*
-2.2574e-5
RAAN
288.8133°
Arg perigee
96.4899°
Mean anomaly
263.6257°
Rev number
15,203

§ Raw data

STARLINK-302911 57856U 23141S   26145.11597253 -.00001065  00000+0 -22574-4 0  99902 57856  53.1599 288.8133 0001353  96.4899 263.6257 15.31695646152033

JSON: /api/v1/satellites/57856 · /tle

For live sub-satellite position, see the globe view (requires WebGL).

§ Visibility from observer

Set your observer location to see the next 7 days of passes ≥ 10°. The values pass through the URL so the page stays shareable.

No JS? Fill the form by hand. The geolocation button needs JavaScript.